Location: B?ogocice
(50.2413°N, 20.2361°E)
Time: 22:45:31
(UTC+00:00)

Cosmos 1544 Rocket - Pass Details

Date: 15 June 2024
Orbit: 601 x 627 km, 82.5° (Epoch: 18 July)

Event Time Altitude Azimuth Distance (km) Brightness Sun altitude
Rises 00:02:13 0° 351° (N) 2,928 8.2 -14.2°
Reaches altitude 10° 00:04:29 10° 353° (N) 2,014 7.2 -14.1°
Maximum altitude 00:08:56 72° 78° (ENE) 660 3.8 -13.8°
Enters shadow 00:12:41 14° 163° (SSE) 1,726 5.4 -13.6°
